,,,PA_Meas_PMT16A,,PR_Meas_QMR101_102,,RH_Meas_QMH101,,SR_Meas_QMS101,,TA_Meas_QMH101,,GenWind,,GenWind,
date,time,status,PA,status,PR,status,RH,status,SR,status,TA,status,DirAvg,status,SpdAvg,
2009-01-20, 00:00:04,VALID,999.63,VALID,0,VALID,93.1882,VALID,0,VALID,24.757,VALID,1,VALID,0,
2009-01-20, 00:01:04,VALID,999.651,VALID,0,VALID,93.3103,VALID,0,VALID,24.7374,VALID,1,VALID,0,
2009-01-20, 00:02:04,VALID,999.64,VALID,0,VALID,93.4552,VALID,0,VALID,24.7179,VALID,1,VALID,0,
2009-01-20, 00:03:04,VALID,999.633,VALID,0,VALID,93.4781,VALID,0,VALID,24.7179,VALID,1,VALID,0,
2009-01-20, 00:04:04,VALID,999.641,VALID,0,VALID,93.4857,VALID,0,VALID,24.7198,VALID,40,VALID,0,
2009-01-20, 00:05:04,VALID,999.632,VALID,0,VALID,93.3713,VALID,0,VALID,24.7179,VALID,83,VALID,0,
2009-01-20, 00:06:04,VALID,999.628,VALID,0,VALID,93.1577,VALID,0,VALID,24.7179,VALID,97,VALID,0.741406,
2009-01-20, 00:07:04,VALID,999.615,VALID,0,VALID,93.2034,VALID,0,VALID,24.7179,VALID,97,VALID,0.685547,
2009-01-20, 00:08:04,VALID,999.676,VALID,0,VALID,93.0585,VALID,0,VALID,24.7374,VALID,97,VALID,0.653125,
2009-01-20, 00:09:04,VALID,999.672,VALID,0,VALID,93.0508,VALID,0,VALID,24.7374,VALID,116,VALID,0.482031,
2009-01-20, 00:10:04,VALID,999.701,VALID,0,VALID,93.0737,VALID,0,VALID,24.757,VALID,129,VALID,0.49375,
2009-01-20, 00:11:04,VALID,999.714,VALID,0,VALID,93.15,VALID,0,VALID,24.757,VALID,133,VALID,0.507031,
2009-01-20, 00:12:04,VALID,999.699,VALID,0,VALID,93.2568,VALID,0,VALID,24.757,VALID,134,VALID,0.200781,
2009-01-20, 00:13:04,VALID,999.744,VALID,0,VALID,93.4552,VALID,0,VALID,24.7765,VALID,134,VALID,0.159375,
2009-01-20, 00:14:04,VALID,999.736,VALID,0,VALID,93.5086,VALID,0,VALID,24.796,VALID,134,VALID,0,
2009-01-20, 00:15:04,VALID,999.719,VALID,0,VALID,93.5468,VALID,0,VALID,24.796,VALID,134,VALID,0,
2009-01-20, 00:16:04,VALID,999.775,VALID,0,VALID,93.5391,VALID,0,VALID,24.8369,VALID,136,VALID,0.249609,
2009-01-20, 00:17:04,VALID,999.791,VALID,0,VALID,93.4247,VALID,0,VALID,24.8155,VALID,269,VALID,0.485547,
2009-01-20, 00:18:04,VALID,999.807,VALID,0,VALID,93.4705,VALID,0,VALID,24.8155,VALID,270,VALID,0.425781,
2009-01-20, 00:19:04,VALID,999.82,VALID,0,VALID,93.234,VALID,0,VALID,24.8155,VALID,307,VALID,0.571875,
2009-01-20, 00:20:04,VALID,999.846,VALID,0,VALID,93.2797,VALID,0,VALID,24.8155,VALID,308,VALID,0.570703,
2009-01-20, 00:21:04,VALID,999.855,VALID,0,VALID,93.3866,VALID,0,VALID,24.835,VALID,308,VALID,0.515625,
2009-01-20, 00:22:04,VALID,999.866,VALID,0,VALID,93.4476,VALID,0,VALID,24.835,VALID,308,VALID,0.548828,
2009-01-20, 00:23:04,VALID,999.888,VALID,0,VALID,93.3026,VALID,0,VALID,24.8155,VALID,308,VALID,0.625,
2009-01-20, 00:24:04,VALID,999.902,VALID,0,VALID,93.3255,VALID,0,VALID,24.835,VALID,313,VALID,0.53125,
2009-01-20, 00:25:04,VALID,999.892,VALID,0,VALID,93.2568,VALID,0,VALID,24.8369,VALID,312,VALID,0.632813,
2009-01-20, 00:26:04,VALID,999.873,VALID,0,VALID,93.295,VALID,0,VALID,24.8546,VALID,312,VALID,0.405859,
2009-01-20, 00:27:04,VALID,999.891,VALID,0,VALID,93.356,VALID,0,VALID,24.8546,VALID,312,VALID,0.456641,
2009-01-20, 00:28:04,VALID,999.945,VALID,0,VALID,93.3331,VALID,0,VALID,24.8546,VALID,290,VALID,0.647266,
2009-01-20, 00:29:04,VALID,999.933,VALID,0,VALID,93.2645,VALID,0,VALID,24.8741,VALID,278,VALID,0.761328,
2009-01-20, 00:30:04,VALID,999.965,VALID,0,VALID,93.2111,VALID,0,VALID,24.8741,VALID,281,VALID,0.603516,
2009-01-20, 00:31:04,VALID,999.999,VALID,0,VALID,93.2263,VALID,0,VALID,24.8955,VALID,283,VALID,0.428516,
2009-01-20, 00:32:04,VALID,999.994,VALID,0,VALID,93.1958,VALID,0,VALID,24.8936,VALID,282,VALID,0.401172,
2009-01-20, 00:33:04,VALID,1000.02,VALID,0,VALID,93.2263,VALID,0,VALID,24.8936,VALID,279,VALID,0.49375,
2009-01-20, 00:34:04,VALID,1000,VALID,0,VALID,93.1958,VALID,0,VALID,24.9131,VALID,282,VALID,0.841016,
2009-01-20, 00:35:04,VALID,1000.04,VALID,0,VALID,93.2492,VALID,0,VALID,24.9326,VALID,250,VALID,0.992188,
2009-01-20, 00:36:04,VALID,1000.19,VALID,0,VALID,93.2721,VALID,0,VALID,24.9326,VALID,254,VALID,2.08164,
2009-01-20, 00:37:04,VALID,1000.15,VALID,0,VALID,90.5865,VALID,0,VALID,24.7765,VALID,256,VALID,2.60352,
2009-01-20, 00:38:04,VALID,1000.07,VALID,0,VALID,89.2437,VALID,0,VALID,24.6984,VALID,223,VALID,2.00977,
2009-01-20, 00:39:04,VALID,1000,VALID,0,VALID,87.4354,VALID,0,VALID,24.5618,VALID,239,VALID,1.83789,
2009-01-20, 00:40:04,VALID,1000.03,VALID,0,VALID,87.382,VALID,0,VALID,24.3861,VALID,258,VALID,4.33984,
2009-01-20, 00:41:04,VALID,1000.1,VALID,0,VALID,87.9009,VALID,0,VALID,24.2299,VALID,269,VALID,3.11367,
2009-01-20, 00:42:04,VALID,1000.12,VALID,0,VALID,87.878,VALID,0,VALID,24.1128,VALID,284,VALID,3.1043,
2009-01-20, 00:43:04,VALID,1000.1,VALID,0,VALID,88.0534,VALID,0,VALID,24.0348,VALID,277,VALID,2.22461,
2009-01-20, 00:44:04,VALID,1000.12,VALID,0,VALID,88.4426,VALID,0,VALID,23.9762,VALID,296,VALID,2.13828,
2009-01-20, 00:45:04,VALID,1000.11,VALID,0,VALID,87.2829,VALID,0,VALID,23.8786,VALID,259,VALID,2.98516,
2009-01-20, 00:46:04,VALID,1000.12,VALID,0,VALID,88.0306,VALID,0,VALID,23.8396,VALID,278,VALID,3.16367,
2009-01-20, 00:47:04,VALID,1000.08,VALID,0,VALID,87.672,VALID,0,VALID,23.7616,VALID,290,VALID,2.0168,
2009-01-20, 00:48:04,VALID,1000.05,VALID,0,VALID,88.0534,VALID,0,VALID,23.703,VALID,273,VALID,2.93633,
2009-01-20, 00:49:04,VALID,1000.02,VALID,0,VALID,88.5265,VALID,0,VALID,23.6445,VALID,311,VALID,2.06797,
2009-01-20, 00:50:04,VALID,1000.02,VALID,0,VALID,88.9614,VALID,0,VALID,23.625,VALID,299,VALID,2.23203,
2009-01-20, 00:51:04,VALID,1000,VALID,0,VALID,89.3734,VALID,0,VALID,23.5664,VALID,309,VALID,3.79453,
2009-01-20, 00:52:04,VALID,1000.02,VALID,0,VALID,89.7625,VALID,0,VALID,23.5079,VALID,259,VALID,2.13867,
2009-01-20, 00:53:04,VALID,999.999,VALID,0,VALID,90.0066,VALID,0,VALID,23.4493,VALID,311,VALID,2.90898,
2009-01-20, 00:54:04,VALID,999.921,VALID,0,VALID,89.938,VALID,0,VALID,23.4298,VALID,286,VALID,3.025,
2009-01-20, 00:55:04,VALID,999.912,VALID,0,VALID,90.4339,VALID,0,VALID,23.4103,VALID,300,VALID,2.63828,
2009-01-20, 00:56:04,VALID,999.897,VALID,0,VALID,90.6933,VALID,0,VALID,23.3908,VALID,284,VALID,2.91914,
2009-01-20, 00:57:04,VALID,999.851,VALID,0,VALID,90.7925,VALID,0,VALID,23.3518,VALID,278,VALID,1.97852,
2009-01-20, 00:58:04,VALID,999.853,VALID,0,VALID,91.1358,VALID,0,VALID,23.3323,VALID,301,VALID,1.46289,
2009-01-20, 00:59:04,VALID,999.848,VALID,0,VALID,91.2045,VALID,0,VALID,23.3323,VALID,300,VALID,3.32539,
2009-01-20, 01:00:04,VALID,999.835,VALID,0,VALID,91.4944,VALID,0,VALID,23.3127,VALID,275,VALID,1.40234,
2009-01-20, 01:01:04,VALID,999.86,VALID,0,VALID,91.5249,VALID,0,VALID,23.3127,VALID,292,VALID,2.72617,
2009-01-20, 01:02:04,VALID,999.854,VALID,0,VALID,91.4868,VALID,0,VALID,23.2932,VALID,278,VALID,2.60195,
2009-01-20, 01:03:04,VALID,999.88,VALID,0,VALID,91.7614,VALID,0,VALID,23.3145,VALID,277,VALID,1.62305,
2009-01-20, 01:04:04,VALID,999.9,VALID,0,VALID,91.6699,VALID,0,VALID,23.295,VALID,298,VALID,2.92617,
2009-01-20, 01:05:04,VALID,999.895,VALID,0,VALID,92.0056,VALID,0,VALID,23.2737,VALID,304,VALID,1.40234,
2009-01-20, 01:06:04,VALID,999.91,VALID,0,VALID,91.8911,VALID,0,VALID,23.2737,VALID,332,VALID,2.46836,
2009-01-20, 01:07:04,VALID,999.886,VALID,0,VALID,92.0743,VALID,0,VALID,23.2737,VALID,326,VALID,1.67266,
2009-01-20, 01:08:04,VALID,999.886,VALID,0,VALID,91.9751,VALID,0,VALID,23.2932,VALID,306,VALID,1.99844,
2009-01-20, 01:09:04,VALID,999.9,VALID,0,VALID,92.1658,VALID,0,VALID,23.3145,VALID,296,VALID,0.436719,
2009-01-20, 01:10:04,VALID,999.863,VALID,0,VALID,92.2268,VALID,0,VALID,23.2737,VALID,352,VALID,1.05391,
2009-01-20, 01:11:04,VALID,999.887,VALID,0,VALID,91.2808,VALID,0,VALID,23.2932,VALID,324,VALID,2.38047,
2009-01-20, 01:12:04,VALID,999.905,VALID,0,VALID,91.502,VALID,0,VALID,23.3713,VALID,316,VALID,2.14453,
2009-01-20, 01:13:04,VALID,999.926,VALID,0,VALID,91.4791,VALID,0,VALID,23.3713,VALID,263,VALID,0.839453,
2009-01-20, 01:14:04,VALID,999.934,VALID,0,VALID,91.4257,VALID,0,VALID,23.3713,VALID,299,VALID,1.51016,
2009-01-20, 01:15:04,VALID,999.925,VALID,0,VALID,90.9451,VALID,0,VALID,23.3908,VALID,338,VALID,1.7168,
2009-01-20, 01:16:04,VALID,999.956,VALID,0,VALID,91.1663,VALID,0,VALID,23.4103,VALID,271,VALID,1.9207,
2009-01-20, 01:17:04,VALID,999.996,VALID,0,VALID,91.3647,VALID,0,VALID,23.4103,VALID,293,VALID,1.36289,
2009-01-20, 01:18:04,VALID,999.974,VALID,0,VALID,91.3571,VALID,0,VALID,23.3908,VALID,313,VALID,1.44766,
2009-01-20, 01:19:04,VALID,999.964,VALID,0,VALID,91.7691,VALID,0,VALID,23.3713,VALID,333,VALID,1.02266,
2009-01-20, 01:20:04,VALID,999.967,VALID,0,VALID,91.914,VALID,0,VALID,23.3713,VALID,315,VALID,0.432031,
2009-01-20, 01:21:04,VALID,999.97,VALID,0,VALID,92.1124,VALID,0,VALID,23.3535,VALID,289,VALID,0.316406,
2009-01-20, 01:22:04,VALID,999.935,VALID,0,VALID,92.0743,VALID,0,VALID,23.3535,VALID,272,VALID,1.38555,
2009-01-20, 01:23:04,VALID,999.873,VALID,0,VALID,92.3413,VALID,0,VALID,23.3323,VALID,339,VALID,1.01367,
2009-01-20, 01:24:04,VALID,999.833,VALID,0,VALID,92.532,VALID,0,VALID,23.3535,VALID,272,VALID,0.529297,
2009-01-20, 01:25:04,VALID,999.791,VALID,0,VALID,92.3947,VALID,0,VALID,23.3323,VALID,301,VALID,1.57656,
2009-01-20, 01:26:04,VALID,999.738,VALID,0.5,VALID,92.3871,VALID,0,VALID,23.3323,VALID,350,VALID,0.883594,
2009-01-20, 01:27:04,VALID,999.703,VALID,0,VALID,92.4557,VALID,0,VALID,23.3323,VALID,286,VALID,1.55273,
2009-01-20, 01:28:04,VALID,999.663,VALID,0,VALID,92.5244,VALID,0,VALID,23.3323,VALID,279,VALID,0.830078,
2009-01-20, 01:29:04,VALID,999.646,VALID,0,VALID,92.7151,VALID,0,VALID,23.3323,VALID,310,VALID,0.946484,
2009-01-20, 01:30:04,VALID,999.598,VALID,0,VALID,92.6617,VALID,0,VALID,23.334,VALID,322,VALID,1.67891,
2009-01-20, 01:31:04,VALID,999.589,VALID,0.5,VALID,92.6846,VALID,0,VALID,23.3127,VALID,266,VALID,1.46211,
2009-01-20, 01:32:04,VALID,999.586,VALID,0,VALID,92.7762,VALID,0,VALID,23.3535,VALID,300,VALID,0.882422,
2009-01-20, 01:33:04,VALID,999.589,VALID,0,VALID,92.8525,VALID,0,VALID,23.3127,VALID,335,VALID,1.13672,
2009-01-20, 01:34:04,VALID,999.524,VALID,0.5,VALID,93.0127,VALID,0,VALID,23.2932,VALID,251,VALID,0.0382813,
2009-01-20, 01:35:04,VALID,999.476,VALID,0.5,VALID,92.9517,VALID,0,VALID,23.295,VALID,342,VALID,1.11445,
2009-01-20, 01:36:04,VALID,999.47,VALID,0,VALID,93.0737,VALID,0,VALID,23.295,VALID,325,VALID,1.62383,
2009-01-20, 01:37:04,VALID,999.458,VALID,0,VALID,92.9822,VALID,0,VALID,23.295,VALID,338,VALID,1.49727,
2009-01-20, 01:38:04,VALID,999.445,VALID,0,VALID,93.1424,VALID,0,VALID,23.295,VALID,272,VALID,0.639063,
2009-01-20, 01:39:04,VALID,999.426,VALID,0,VALID,93.0661,VALID,0,VALID,23.2755,VALID,275,VALID,1.15195,
2009-01-20, 01:40:04,VALID,999.434,VALID,0,VALID,93.1348,VALID,0,VALID,23.3145,VALID,274,VALID,1.82695,
2009-01-20, 01:41:04,VALID,999.422,VALID,0,VALID,93.0585,VALID,0,VALID,23.3145,VALID,275,VALID,1.84805,
2009-01-20, 01:42:04,VALID,999.412,VALID,0.5,VALID,92.9364,VALID,0,VALID,23.3535,VALID,289,VALID,1.09102,
2009-01-20, 01:43:04,VALID,999.418,VALID,0,VALID,93.0432,VALID,0,VALID,23.3535,VALID,296,VALID,1.51758,
2009-01-20, 01:44:04,VALID,999.389,VALID,0,VALID,93.0661,VALID,0,VALID,23.3731,VALID,321,VALID,1.66523,
2009-01-20, 01:45:04,VALID,999.384,VALID,0,VALID,92.1811,VALID,0,VALID,23.3145,VALID,299,VALID,3.10078,
2009-01-20, 01:46:04,VALID,999.367,VALID,0,VALID,91.998,VALID,0,VALID,23.3127,VALID,266,VALID,1.95391,
2009-01-20, 01:47:04,VALID,999.353,VALID,0,VALID,91.9522,VALID,0,VALID,23.2737,VALID,308,VALID,2.78516,
2009-01-20, 01:48:04,VALID,999.313,VALID,0,VALID,92.1963,VALID,0,VALID,23.2755,VALID,304,VALID,1.83555,
2009-01-20, 01:49:04,VALID,999.35,VALID,0,VALID,92.3947,VALID,0,VALID,23.256,VALID,289,VALID,1.2125,
2009-01-20, 01:50:04,VALID,999.311,VALID,0.5,VALID,92.4939,VALID,0,VALID,23.2365,VALID,291,VALID,1.17891,
2009-01-20, 01:51:04,VALID,999.281,VALID,0,VALID,92.2116,VALID,0,VALID,23.2365,VALID,313,VALID,1.89336,
2009-01-20, 01:52:04,VALID,999.277,VALID,0,VALID,91.7157,VALID,0,VALID,23.2169,VALID,286,VALID,4.64414,
2009-01-20, 01:53:04,VALID,999.245,VALID,0,VALID,91.9369,VALID,0,VALID,23.2365,VALID,281,VALID,2.25156,
2009-01-20, 01:54:04,VALID,999.234,VALID,0,VALID,92.1277,VALID,0,VALID,23.2169,VALID,317,VALID,1.84063,
2009-01-20, 01:55:04,VALID,999.238,VALID,0,VALID,92.2955,VALID,0,VALID,23.2169,VALID,311,VALID,1.61992,
2009-01-20, 01:56:04,VALID,999.263,VALID,0,VALID,92.3413,VALID,0,VALID,23.1762,VALID,276,VALID,1.73281,
2009-01-20, 01:57:04,VALID,999.275,VALID,0,VALID,92.5168,VALID,0,VALID,23.1779,VALID,317,VALID,1.73125,
2009-01-20, 01:58:04,VALID,999.221,VALID,0,VALID,92.6541,VALID,0,VALID,23.1762,VALID,301,VALID,1.38867,
2009-01-20, 01:59:04,VALID,999.238,VALID,0,VALID,92.7838,VALID,0,VALID,23.1779,VALID,298,VALID,1.32422,
2009-01-20, 02:00:04,VALID,999.243,VALID,0,VALID,92.8296,VALID,0,VALID,23.1974,VALID,227,VALID,0.390625,
2009-01-20, 02:01:04,VALID,999.207,VALID,0,VALID,92.4176,VALID,0,VALID,23.1584,VALID,305,VALID,2.33594,
2009-01-20, 02:02:04,VALID,999.192,VALID,0,VALID,92.3337,VALID,0,VALID,23.1974,VALID,315,VALID,2.33906,
2009-01-20, 02:03:04,VALID,999.281,VALID,0,VALID,92.2879,VALID,0,VALID,23.256,VALID,286,VALID,2.09766,
2009-01-20, 02:04:04,VALID,999.236,VALID,0,VALID,92.1048,VALID,0,VALID,23.2755,VALID,281,VALID,2.11953,
2009-01-20, 02:05:04,VALID,999.238,VALID,0,VALID,92.2268,VALID,0,VALID,23.2755,VALID,295,VALID,2.10938,
2009-01-20, 02:06:04,VALID,999.253,VALID,0,VALID,92.0437,VALID,0,VALID,23.2755,VALID,329,VALID,2.19336,
2009-01-20, 02:07:04,VALID,999.244,VALID,0,VALID,92.0056,VALID,0,VALID,23.2755,VALID,310,VALID,2.16055,
2009-01-20, 02:08:04,VALID,999.206,VALID,0,VALID,92.2879,VALID,0,VALID,23.295,VALID,292,VALID,0.707812,
2009-01-20, 02:09:04,VALID,999.188,VALID,0,VALID,92.532,VALID,0,VALID,23.2755,VALID,343,VALID,1.17617,
2009-01-20, 02:10:04,VALID,999.193,VALID,0,VALID,92.3718,VALID,0,VALID,23.256,VALID,343,VALID,1.95625,
2009-01-20, 02:11:04,VALID,999.181,VALID,0,VALID,92.5778,VALID,0,VALID,23.2755,VALID,330,VALID,1.62969,
2009-01-20, 02:12:04,VALID,999.165,VALID,0,VALID,92.204,VALID,0,VALID,23.295,VALID,319,VALID,1.33008,
2009-01-20, 02:13:04,VALID,999.148,VALID,0,VALID,92.3947,VALID,0,VALID,23.3145,VALID,331,VALID,1.05117,
2009-01-20, 02:14:04,VALID,999.128,VALID,0,VALID,92.3794,VALID,0,VALID,23.295,VALID,323,VALID,1.42305,
2009-01-20, 02:15:04,VALID,999.085,VALID,0,VALID,92.7762,VALID,0,VALID,23.295,VALID,328,VALID,0.379297,
2009-01-20, 02:16:04,VALID,999.102,VALID,0,VALID,92.4328,VALID,0,VALID,23.2968,VALID,338,VALID,0.732031,
2009-01-20, 02:17:04,VALID,999.101,VALID,0,VALID,92.616,VALID,0,VALID,23.256,VALID,296,VALID,0.713672,
2009-01-20, 02:18:04,VALID,999.103,VALID,0,VALID,92.2268,VALID,0,VALID,23.256,VALID,298,VALID,1.81758,
2009-01-20, 02:19:04,VALID,999.062,VALID,0,VALID,92.1658,VALID,0,VALID,23.256,VALID,335,VALID,0.676172,
2009-01-20, 02:20:04,VALID,999.059,VALID,0,VALID,92.4634,VALID,0,VALID,23.2755,VALID,2,VALID,0.630469,
2009-01-20, 02:21:04,VALID,999.091,VALID,0,VALID,92.2574,VALID,0,VALID,23.256,VALID,341,VALID,1.21992,
2009-01-20, 02:22:04,VALID,999.058,VALID,0,VALID,92.4939,VALID,0,VALID,23.2755,VALID,273,VALID,0.722266,
2009-01-20, 02:23:04,VALID,998.999,VALID,0,VALID,92.5091,VALID,0,VALID,23.256,VALID,246,VALID,0.0195313,
2009-01-20, 02:24:04,VALID,998.969,VALID,0,VALID,92.4634,VALID,0,VALID,23.2365,VALID,300,VALID,0.429688,
2009-01-20, 02:25:04,VALID,998.92,VALID,0,VALID,92.4252,VALID,0,VALID,23.2347,VALID,295,VALID,0.46875,
2009-01-20, 02:26:04,VALID,998.882,VALID,0,VALID,92.0437,VALID,0,VALID,23.2365,VALID,296,VALID,0.757422,
2009-01-20, 02:27:04,VALID,998.821,VALID,0,VALID,92.265,VALID,0,VALID,23.2755,VALID,350,VALID,0.530469,
2009-01-20, 02:28:04,VALID,998.805,VALID,0,VALID,92.3031,VALID,0,VALID,23.2755,VALID,341,VALID,0.536719,
2009-01-20, 02:29:04,VALID,998.771,VALID,0,VALID,92.4023,VALID,0,VALID,23.256,VALID,341,VALID,0,
2009-01-20, 02:30:04,VALID,998.743,VALID,0,VALID,92.3871,VALID,0,VALID,23.256,VALID,341,VALID,0,
2009-01-20, 02:31:04,VALID,998.758,VALID,0,VALID,92.4023,VALID,0,VALID,23.2365,VALID,341,VALID,0.0804688,
2009-01-20, 02:32:04,VALID,998.703,VALID,0,VALID,92.532,VALID,0,VALID,23.256,VALID,343,VALID,0.175781,
2009-01-20, 02:33:04,VALID,998.697,VALID,0,VALID,92.0971,VALID,0,VALID,23.2169,VALID,344,VALID,0.3,
2009-01-20, 02:34:04,VALID,998.642,VALID,0,VALID,91.9522,VALID,0,VALID,23.2365,VALID,344,VALID,0.417969,
2009-01-20, 02:35:04,VALID,998.594,VALID,0,VALID,92.0132,VALID,0,VALID,23.256,VALID,344,VALID,0.0429688,
2009-01-20, 02:36:04,VALID,998.543,VALID,0,VALID,92.12,VALID,0,VALID,23.2365,VALID,316,VALID,0.767969,
2009-01-20, 02:37:04,VALID,998.497,VALID,0,VALID,92.4023,VALID,0,VALID,23.2755,VALID,313,VALID,0.395703,
2009-01-20, 02:38:04,VALID,998.44,VALID,0,VALID,92.204,VALID,0,VALID,23.2755,VALID,302,VALID,0.319141,
2009-01-20, 02:39:04,VALID,998.416,VALID,0,VALID,92.1582,VALID,0,VALID,23.256,VALID,339,VALID,0.483594,
2009-01-20, 02:40:04,VALID,998.416,VALID,0,VALID,91.9827,VALID,0,VALID,23.256,VALID,339,VALID,0.570703,
2009-01-20, 02:41:04,VALID,998.401,VALID,0,VALID,91.6546,VALID,0,VALID,23.2365,VALID,7,VALID,0.978906,
2009-01-20, 02:42:04,VALID,998.404,VALID,0,VALID,91.7157,VALID,0,VALID,23.256,VALID,7,VALID,0.0316406,
2009-01-20, 02:43:04,VALID,998.384,VALID,0,VALID,92.0971,VALID,0,VALID,23.2755,VALID,7,VALID,0.216406,
2009-01-20, 02:44:04,VALID,998.354,VALID,0,VALID,92.059,VALID,0,VALID,23.256,VALID,7,VALID,0.164063,
2009-01-20, 02:45:04,VALID,998.355,VALID,0,VALID,92.1734,VALID,0,VALID,23.256,VALID,7,VALID,0.229297,
2009-01-20, 02:46:04,VALID,998.364,VALID,0,VALID,92.5931,VALID,0,VALID,23.2755,VALID,54,VALID,0.487891,
2009-01-20, 02:47:04,VALID,998.406,VALID,0,VALID,92.3794,VALID,0,VALID,23.2755,VALID,73,VALID,0.623438,
2009-01-20, 02:48:04,VALID,998.424,VALID,0,VALID,91.9598,VALID,0,VALID,23.256,VALID,78,VALID,0.530078,
2009-01-20, 02:49:04,VALID,998.421,VALID,0,VALID,92.2116,VALID,0,VALID,23.2755,VALID,78,VALID,0.714844,
2009-01-20, 02:50:04,VALID,998.452,VALID,0,VALID,91.8377,VALID,0,VALID,23.2755,VALID,68,VALID,0.871875,
2009-01-20, 02:51:05,VALID,998.434,VALID,0,VALID,91.9522,VALID,0,VALID,23.2755,VALID,68,VALID,0.964844,
2009-01-20, 02:52:05,VALID,998.441,VALID,0,VALID,92.0514,VALID,0,VALID,23.3145,VALID,70,VALID,0.889063,
2009-01-20, 02:53:05,VALID,998.442,VALID,0,VALID,92.2497,VALID,0,VALID,23.334,VALID,72,VALID,1.06055,
2009-01-20, 02:54:05,VALID,998.438,VALID,0,VALID,91.7233,VALID,0,VALID,23.3145,VALID,79,VALID,0.992969,
2009-01-20, 02:55:05,VALID,998.437,VALID,0,VALID,91.853,VALID,0,VALID,23.3535,VALID,94,VALID,0.725781,
2009-01-20, 02:56:05,VALID,998.465,VALID,0,VALID,91.7691,VALID,0,VALID,23.3535,VALID,98,VALID,0.823047,
2009-01-20, 02:57:05,VALID,998.447,VALID,0,VALID,92.2574,VALID,0,VALID,23.3908,VALID,99,VALID,0.582031,
2009-01-20, 02:58:05,VALID,998.452,VALID,0,VALID,92.4328,VALID,0,VALID,23.4121,VALID,99,VALID,0.373437,
2009-01-20, 02:59:05,VALID,998.467,VALID,0,VALID,92.5091,VALID,0,VALID,23.3926,VALID,99,VALID,0.828125,
2009-01-20, 03:00:05,VALID,998.459,VALID,0,VALID,92.6923,VALID,0,VALID,23.3926,VALID,109,VALID,0.634375,
2009-01-20, 03:01:05,VALID,998.475,VALID,0,VALID,92.5244,VALID,0,VALID,23.3926,VALID,110,VALID,0.985547,
2009-01-20, 03:02:05,VALID,998.479,VALID,0,VALID,92.6694,VALID,0,VALID,23.3731,VALID,108,VALID,0.830078,
2009-01-20, 03:03:05,VALID,998.463,VALID,0,VALID,92.6694,VALID,0,VALID,23.3518,VALID,109,VALID,1.04648,
2009-01-20, 03:04:05,VALID,998.444,VALID,0,VALID,92.6617,VALID,0,VALID,23.3731,VALID,115,VALID,1.23945,
2009-01-20, 03:05:05,VALID,998.468,VALID,0,VALID,92.6465,VALID,0,VALID,23.3731,VALID,113,VALID,1.62344,
2009-01-20, 03:06:05,VALID,998.453,VALID,0,VALID,92.8754,VALID,0,VALID,23.3926,VALID,119,VALID,1.13008,
2009-01-20, 03:07:05,VALID,998.447,VALID,0,VALID,93.15,VALID,0,VALID,23.3926,VALID,125,VALID,0.860547,
2009-01-20, 03:08:05,VALID,998.514,VALID,0,VALID,92.8906,VALID,0,VALID,23.3926,VALID,124,VALID,1.37578,
2009-01-20, 03:09:05,VALID,998.513,VALID,0,VALID,92.9364,VALID,0,VALID,23.3926,VALID,114,VALID,1.22812,
2009-01-20, 03:10:05,VALID,998.535,VALID,0,VALID,92.7609,VALID,0,VALID,23.3926,VALID,117,VALID,1.45547,
2009-01-20, 03:11:05,VALID,998.542,VALID,0,VALID,92.9974,VALID,0,VALID,23.3926,VALID,123,VALID,0.815625,
2009-01-20, 03:12:05,VALID,998.584,VALID,0,VALID,93.0127,VALID,0,VALID,23.3713,VALID,113,VALID,1.12266,
2009-01-20, 03:13:05,VALID,998.628,VALID,0,VALID,93.1271,VALID,0,VALID,23.4121,VALID,118,VALID,0.863281,
2009-01-20, 03:14:05,VALID,998.613,VALID,0,VALID,92.9135,VALID,0,VALID,23.4121,VALID,105,VALID,0.973047,
2009-01-20, 03:15:05,VALID,998.648,VALID,0,VALID,92.6999,VALID,0,VALID,23.3926,VALID,120,VALID,1.02227,
2009-01-20, 03:16:05,VALID,998.67,VALID,0,VALID,92.7762,VALID,0,VALID,23.4121,VALID,112,VALID,0.422656,
2009-01-20, 03:17:05,VALID,998.669,VALID,0,VALID,92.5854,VALID,0,VALID,23.4121,VALID,109,VALID,0.4125,
2009-01-20, 03:18:05,VALID,998.623,VALID,0,VALID,92.5854,VALID,0,VALID,23.4121,VALID,79,VALID,0.780469,
2009-01-20, 03:19:05,VALID,998.635,VALID,0,VALID,92.2192,VALID,0,VALID,23.3926,VALID,74,VALID,0.880859,
2009-01-20, 03:20:05,VALID,998.624,VALID,0,VALID,92.1582,VALID,0,VALID,23.3926,VALID,76,VALID,0.680078,
2009-01-20, 03:21:05,VALID,998.555,VALID,0,VALID,92.6236,VALID,0,VALID,23.4121,VALID,80,VALID,0.226953,
2009-01-20, 03:22:05,VALID,998.571,VALID,0,VALID,92.6923,VALID,0,VALID,23.4121,VALID,81,VALID,0,
2009-01-20, 03:23:05,VALID,998.556,VALID,0,VALID,92.7762,VALID,0,VALID,23.3908,VALID,81,VALID,0,
2009-01-20, 03:24:05,VALID,998.592,VALID,0,VALID,92.7762,VALID,0,VALID,23.3926,VALID,81,VALID,0,
2009-01-20, 03:25:05,VALID,998.597,VALID,0,VALID,92.7609,VALID,0,VALID,23.3731,VALID,81,VALID,0.291797,
2009-01-20, 03:26:05,VALID,998.569,VALID,0,VALID,92.7457,VALID,0,VALID,23.3731,VALID,258,VALID,0.432422,
2009-01-20, 03:27:05,VALID,998.57,VALID,0,VALID,92.6541,VALID,0,VALID,23.3535,VALID,258,VALID,0,
2009-01-20, 03:28:05,VALID,998.585,VALID,0,VALID,92.8525,VALID,0,VALID,23.3535,VALID,183,VALID,0.640625,
2009-01-20, 03:29:05,VALID,998.608,VALID,0,VALID,92.1658,VALID,0,VALID,23.3535,VALID,159,VALID,0.769922,
2009-01-20, 03:30:05,VALID,998.667,VALID,0,VALID,92.3489,VALID,0,VALID,23.3926,VALID,141,VALID,0.932031,
2009-01-20, 03:31:05,VALID,998.695,VALID,0,VALID,92.532,VALID,0,VALID,23.4121,VALID,117,VALID,1.25781,
2009-01-20, 03:32:05,VALID,998.736,VALID,0,VALID,91.914,VALID,0,VALID,23.4316,VALID,64,VALID,1.49727,
2009-01-20, 03:33:05,VALID,998.773,VALID,0,VALID,91.9445,VALID,0,VALID,23.4706,VALID,93,VALID,1.50234,
2009-01-20, 03:34:05,VALID,998.814,VALID,0,VALID,92.1429,VALID,0,VALID,23.4884,VALID,84,VALID,1.66211,
2009-01-20, 03:35:05,VALID,998.825,VALID,0,VALID,91.9369,VALID,0,VALID,23.5292,VALID,84,VALID,1.30508,
2009-01-20, 03:36:05,VALID,998.835,VALID,0,VALID,92.41,VALID,0,VALID,23.5487,VALID,74,VALID,0.879297,
2009-01-20, 03:37:05,VALID,998.826,VALID,0,VALID,92.4557,VALID,0,VALID,23.5682,VALID,65,VALID,0.958594,
2009-01-20, 03:38:05,VALID,998.766,VALID,0,VALID,92.3413,VALID,0,VALID,23.5877,VALID,76,VALID,1.39492,
2009-01-20, 03:39:05,VALID,998.756,VALID,0,VALID,91.9445,VALID,0,VALID,23.5682,VALID,97,VALID,1.37031,
2009-01-20, 03:40:05,VALID,998.749,VALID,0,VALID,92.4252,VALID,0,VALID,23.5877,VALID,91,VALID,0.919531,
2009-01-20, 03:41:05,VALID,998.724,VALID,0,VALID,91.4334,VALID,0,VALID,23.5487,VALID,89,VALID,0.858203,
2009-01-20, 03:42:05,VALID,998.686,VALID,0,VALID,92.1887,VALID,0,VALID,23.6072,VALID,87,VALID,1.0293,
2009-01-20, 03:43:05,VALID,998.686,VALID,0,VALID,92.471,VALID,0,VALID,23.6072,VALID,91,VALID,1.37539,
2009-01-20, 03:44:05,VALID,998.637,VALID,0,VALID,92.5168,VALID,0,VALID,23.6072,VALID,97,VALID,1.26602,
2009-01-20, 03:45:05,VALID,998.646,VALID,0,VALID,92.7304,VALID,0,VALID,23.5859,VALID,102,VALID,0.886328,
2009-01-20, 03:46:05,VALID,998.648,VALID,0,VALID,92.7457,VALID,0,VALID,23.5877,VALID,98,VALID,1.29844,
2009-01-20, 03:47:05,VALID,998.625,VALID,0,VALID,92.6007,VALID,0,VALID,23.5469,VALID,98,VALID,1.12734,